Regional Weather Roundup
Issued by NWS

Home | Current Version | Previous Version | Graphics & Text | Print | Product List | Glossary On
Versions: 1 2 3 4 5 6 7 8 9 10 11 12 13 14 15 16 17 18 19 20 21 22 23 24 25 26 27 28 29 30 31 32 33 34 35 36 37 38 39 40 41 42 43 44 45 46 47 48 49 50
000
ASUS43 KLOT 201608
RWRIL

ILLINOIS REGIONAL WEATHER ROUNDUP
NATIONAL WEATHER SERVICE CHICAGO/ROMEOVILLE IL
1100 AM CDT SUN MAY 20 2018

NOTE: "FAIR" INDICATES FEW OR NO CLOUDS BELOW 12,000 FEET WITH NO
SIGNIFICANT WEATHER AND/OR OBSTRUCTIONS TO VISIBILITY.

* THESE STATIONS ARE NOT UNDER NWS QUALITY CONTROL. THEY ALSO MAY NOT
  REPORT WEATHER SUCH AS PRECIPITATION OR FOG.

ILZ001-002-007-009-015-016-024-201700-
NORTHWEST ILLINOIS

CITY           SKY/WX    TMP DP  RH WIND       PRES   REMARKS
MOLINE         CLOUDY    61  52  72 E15       30.12S
SAVANNA*       CLOUDY    52  49  88 NE10      30.18S
$$

ILZ003-004-008-010-011-017-018-201700-
NORTH CENTRAL ILLINOIS

CITY           SKY/WX    TMP DP  RH WIND       PRES   REMARKS
ROCKFORD       LGT RAIN  48  45  89 E12       30.21R
FREEPORT*      CLOUDY    51  49  93 NE12      30.21R
ROCHELLE*      CLOUDY    50  49  93 E12G17    30.17F
DE KALB*       LGT RAIN  47  46  97 E13G23    30.18F
PERU*          CLOUDY    55  48  76 NE16G23   30.16F
$$

ILZ005-006-012>014-019>023-201700-
NORTHEAST ILLINOIS

CITY           SKY/WX    TMP DP  RH WIND       PRES   REMARKS
CHICAGO-OHARE  LGT RAIN  45  41  86 N14       30.23R
CHICAGO-MIDWAY CLOUDY    45  43  93 N15       30.23R
AURORA         CLOUDY    49  44  83 NE17      30.20S
LANSING*       CLOUDY    45  45 100 N7        30.21R
JOLIET*        CLOUDY    49  46  87 N14G20    30.20S
WAUKEGAN       RAIN      42  41  96 N8G17     30.23S FOG
DUPAGE AIRPORT LGT RAIN  46  44  93 N13       30.22R FOG
KANKAKEE*      CLOUDY    54  50  85 NE12      30.16F
WHEELING       LGT RAIN  45  43  93 NW5       30.26R
MORRIS*        CLOUDY    50  44  79 NE6G16    30.18S
ROMEOVILLE*    CLOUDY    47  44  88 N15       30.21S
NORTHERLY ISL    N/A     44  41  89 NW15        N/A
$$

LMZ740>746-201700-
SOUTHERN LAKE MICHIGAN

STATION/POSITION SKY/WX   TEMP    WIND        PRES    VSBY  WAVE
                          AIR SEA DIR/SP/G                  HT/PER
                          (F)     (DEG/KT/KT) (MB)    (MI)  (FT/S)
WILMETTE HARBOR            42 46  360/ 16/ 23   N/A           6/ 6
HARRISON CRIB              43     360/ 21/ 24   N/A
BURNHAM HARBOR             43     360/ 15/ 18   N/A
CALUMET HARBOR             43     340/ 13/ 18 1022.8R
BURNS HARBOR               45     360/  9/ 13 1023.0R
MICHIGAN CITY 6N           44 53  360/ 14/ 17   N/A           4/ 5
ST. JOSEPH                 51 53   40/  8/ 10 1023.0          4/ 5
$$

ILZ025>027-034>036-040-047-049-050-058-095>099-201700-
WEST-CENTRAL ILLINOIS

CITY           SKY/WX    TMP DP  RH WIND       PRES   REMARKS
QUINCY         CLOUDY    71  62  73 SW15G24   30.15R
GALESBURG*     CLOUDY    67  58  73 E10       30.11R HAZE
MACOMB*        CLOUDY    74  62  66 CALM      30.11R
JACKSONVILLE*  MOSUNNY   72  64  74 SW6       30.13R
PITTSFIELD*    CLOUDY    69  65  90 SW15G21   30.18R
$$

ILZ028>032-037-038-041>044-048-051>054-059>061-201700-
CENTRAL ILLINOIS

CITY           SKY/WX    TMP DP  RH WIND       PRES   REMARKS
PONTIAC        CLOUDY    62  55  78 NE16      30.14S
BLOOMINGTON    CLOUDY    66  62  87 NE8       30.11R
DECATUR        FAIR      74  65  73 VRB3      30.08R
PEORIA         FAIR      69  60  73 E9        30.10S HAZE
LACON*         CLOUDY    60  52  74 NE9       30.13S
SPRINGFIELD    FAIR      78  67  68 W6        30.10R HX  80
TAYLORVILLE    FAIR      71  67  88 W7        30.10R
$$

ILZ033-039-045-046-055>057-062-063-201700-
EAST-CENTRAL ILLINOIS

CITY           SKY/WX    TMP DP  RH WIND       PRES   REMARKS
CHAMPAIGN      FAIR      73  65  75 NE8       30.06F
DANVILLE*      LGT RAIN  71  65  82 CALM      30.06F
RANTOUL*       FAIR      72  67  82 E8        30.08F HAZE
MATTOON        FAIR      72  66  81 E7        30.07F
PARIS*         FAIR      71  65  79 CALM      30.10F
$$

ILZ079-100>102-201700-
SOUTHWEST ILLINOIS

CITY           SKY/WX    TMP DP  RH WIND       PRES   REMARKS
ALTON          PTSUNNY   72  68  88 S9        30.10R
BELLEVILLE     CLOUDY    76  66  71 SE7       30.09R
CAHOKIA*       CLOUDY    76  66  71 SE7       30.09R
$$

ILZ064>066-069>071-074>076-080>082-084>086-088>090-092>094-201700-
SOUTH-CENTRAL ILLINOIS

CITY           SKY/WX    TMP DP  RH WIND       PRES   REMARKS
CARBONDALE     FAIR      77  66  68 SE7       30.10F
CAIRO*         FAIR      77  69  74 CALM      30.11S
EFFINGHAM*     FAIR      74  68  79 E8        30.10S
MARION         MOSUNNY   75  64  69 SE6       30.12F
CENTRALIA*     SUNNY     77  66  69 SE8       30.09S
SALEM*         FAIR      78  64  61 SE5       30.10R HX  80
METROPOLIS*    FAIR      79  67  66 CALM      30.13R HX  82
$$

ILZ067-068-072-073-078-083-087-091-201700-
SOUTHEAST ILLINOIS

CITY           SKY/WX    TMP DP  RH WIND       PRES   REMARKS
LAWRENCEVILLE  FAIR      75  64  68 N3        30.11F
FLORA*         FAIR      75  66  72 E6        30.10F
FAIRFIELD*     FAIR      76  65  70 E3        30.10F
HARRISBURG*    FAIR      79  66  64 SE3       30.12F HX  81
ROBINSON*      FAIR      73  65  77 CALM      30.12F
CARMI*         FAIR      79  63  57 E5        30.10F HX  81
$$

ABBREVIATIONS USED IN REMARKS
   TC - TEMPERATURE IN CELSIUS
  WCI - WIND CHILL INDEX
   HX - HEAT INDEX
  VSB - VISIBILITY
$$





USA.gov is the U.S. government's official web portal to all federal, state and local government web resources and services.